Location: Diebersbach
(48.5163°N, 8.0558°E)
Time: 20:42:12
(UTC+00:00)

USA 229 - Pass Details

Date: 28 October 2021
Orbit: 946 x 1266 km, 63.4° (Epoch: 25 November)

Event Time Altitude Azimuth Distance (km) Brightness Sun altitude
Rises 19:59:36 0° 273° (W) 3,721 7.4 -37.2°
Reaches altitude 10° 20:02:34 10° 285° (WNW) 2,816 6.6 -37.7°
Maximum altitude 20:08:11 28° 343° (NNW) 1,899 5.2 -38.5°
Enters shadow 20:09:12 27° 357° (N) 1,952 5.2 -38.7°
